Flag for Canada Weather past 2 weeks in Kuujjuaq, Quebec, Canada

Now
5 °F

Light snow. Partly sunny.


Feels Like: -10 °F
Forecast: 5 / 13 °F
Wind: 10 mph from Southwest

Location: Kuujjuaq

Current Time: Dec 20, 2014 at 3:25:20 PM

Latest Report: Dec 20, 2014 at 2:00 PM


Visibility: 15 mi

Pressure: 30.12 "Hg

Humidity: 72%

Dew point: -2 °F

Location of KuujjuaqLocation

Historic Weather in Kuujjuaq — Graph

°F

Kuujjuaq temperature yesterday

Maximum temperature yesterday: 12 °F (at 2:00 AM)
Minimum temperature yesterday: -4 °F (at 7:00 PM)
Average temperature yesterday: 5 °F

Past Weeks' High & Low Weather Summary

 TemperatureHumidityPressure
High23 °F (Dec 13, 7:00 PM)93% (Dec 13, 12:00 PM)30.83 "Hg (Dec 13, 12:00 PM)
Low-24 °F (Dec 9, 6:00 AM)51% (Dec 11, 1:00 PM)29.52 "Hg (Dec 14, 12:00 PM)
Average-2 °F74%30.15 "Hg
* Reported Dec 5 2:00 PM — Dec 20 2:00 PM, Kuujjuaq, Weather by CustomWeather, © 2014

Note: Actual official high and low records may vary slightly from our data, if they occured in-between our weather recording intervals... More about our weather records

Advertising

Kuujjuaq weather history for previous 24 hours

 ConditionsComfort  
Time TempWeatherWind HumidityBarometerVisibility
2:00 PM
Dec 20
5 °FLight snow. Partly sunny.10 mph72%30.12 "Hg15 mi
1:00 PM5 °FLight snow. Partly sunny.12 mph72%30.12 "Hg15 mi
12:00 PM5 °FLight snow. Partly sunny.10 mph72%30.13 "Hg15 mi
11:00 AM5 °FLight snow. Partly sunny.13 mph72%30.15 "Hg12 mi
10:00 AM5 °FLight snow. Broken clouds.10 mph78%30.16 "Hg12 mi
9:00 AM5 °FLight snow. Overcast.9 mph78%30.17 "Hg4 mi
8:00 AM5 °FLight snow. Overcast.8 mph72%30.18 "Hg15 mi
7:00 AM5 °FLight snow. Overcast.8 mph78%30.18 "Hg15 mi
6:00 AM5 °FLight snow. Overcast.6 mph78%30.19 "Hg15 mi
5:00 AM7 °FLight snow. Overcast.10 mph72%30.19 "Hg15 mi
4:00 AM7 °FLight snow. Overcast.5 mph78%30.19 "Hg15 mi
3:00 AM7 °FLight snow. Mostly cloudy.6 mph78%30.19 "Hg12 mi
2:00 AM5 °FLight snow. Overcast.9 mph85%30.19 "Hg15 mi
1:00 AM5 °FLight snow. Overcast.5 mph78%30.20 "Hg15 mi
12:00 AM5 °FLight snow. Overcast.7 mph85%30.20 "Hg15 mi
11:00 PM
Dec 19
5 °FLight snow. Overcast.5 mph85%30.21 "Hg15 mi
10:00 PM3 °FLight snow. Overcast.6 mph85%30.22 "Hg15 mi
9:00 PM1 °FLight snow. Overcast.2 mph78%30.23 "Hg15 mi
8:00 PM0 °FLight snow. Overcast.3 mph78%30.24 "Hg15 mi
7:00 PM-4 °FLight snow. Overcast.No wind84%30.24 "Hg15 mi
6:00 PM-2 °FLight snow. Passing clouds.No wind84%30.25 "Hg15 mi
5:00 PM-2 °FLight snow. Passing clouds.3 mph84%30.25 "Hg15 mi
4:00 PM0 °FLight snow. Passing clouds.2 mph84%30.24 "Hg15 mi
3:49 PM0 °FLight snow. Passing clouds.2 mph84%30.24 "Hg15 mi
3:00 PM3 °FScattered showers. Passing clouds.No wind78%30.24 "Hg15 mi
Weather by CustomWeather, © 2014

See weather overviewHow to use our weather pages